Location: Barcelona
(41.3830°N, 2.1830°E)
Time: 23:03:15
(UTC+02:00)

ISS - Pass Details

Date: 21 May 2019
Orbit: 408 x 418 km, 51.6° (Epoch: 26 May)

Event Time Altitude Azimuth Distance (km) Brightness Sun altitude
Rises 21:49:42 0° 241° (WSW) 2,335 0.4 -7.3°
Reaches altitude 10° 21:51:47 10° 244° (WSW) 1,478 -0.6 -7.7°
Maximum altitude 21:55:05 64° 326° (NNW) 461 -3.3 -8.2°
Drops below altitude 10° 21:58:25 10° 50° (NE) 1,491 -1.1 -8.7°
Sets 22:00:32 0° 53° (NE) 2,359 -0.1 -9.0°
